TimeCDT,TemperatureF,Dew PointF,Humidity,Sea Level PressureIn,VisibilityMPH,Wind Direction,Wind SpeedMPH,Gust SpeedMPH,PrecipitationIn,Events,Conditions,WindDirDegrees,DateUTC
12:38 AM,60.8,57.2,88,29.81,9.0,North,5.8,-,N/A,,Mostly Cloudy,350,2013-06-10 05:38:00
12:49 AM,60.8,57.2,88,29.82,9.0,North,5.8,-,N/A,,Partly Cloudy,350,2013-06-10 05:49:00
12:52 AM,60.1,57.9,93,29.81,9.0,North,6.9,-,N/A,,Partly Cloudy,350,2013-06-10 05:52:00
1:12 AM,59.0,57.2,94,29.81,9.0,North,6.9,-,N/A,,Mostly Cloudy,350,2013-06-10 06:12:00
1:26 AM,60.8,59.0,94,29.82,1.8,NNW,9.2,-,0.01,,Overcast,340,2013-06-10 06:26:00
1:28 AM,60.8,59.0,94,29.82,0.8,NNW,9.2,-,0.01,,Overcast,340,2013-06-10 06:28:00
1:39 AM,60.8,59.0,94,29.81,0.2,NNW,5.8,-,0.01,Fog,Fog,340,2013-06-10 06:39:00
1:52 AM,61.0,60.1,97,29.81,0.5,NNW,6.9,-,0.01,Fog,Fog,340,2013-06-10 06:52:00
2:52 AM,61.0,60.1,97,29.80,1.0,NNW,9.2,-,N/A,,Overcast,340,2013-06-10 07:52:00
3:03 AM,60.8,60.8,100,29.81,1.5,North,8.1,-,N/A,,Overcast,350,2013-06-10 08:03:00
3:20 AM,60.8,59.0,94,29.81,0.8,NNW,9.2,-,N/A,,Overcast,340,2013-06-10 08:20:00
3:52 AM,61.0,59.0,93,29.81,0.5,North,8.1,-,N/A,Fog,Fog,350,2013-06-10 08:52:00
4:52 AM,60.1,59.0,96,29.82,0.2,North,5.8,-,N/A,Fog,Fog,350,2013-06-10 09:52:00
5:52 AM,60.1,59.0,96,29.83,0.2,NNW,6.9,-,N/A,Fog,Fog,340,2013-06-10 10:52:00
6:52 AM,60.1,59.0,96,29.83,0.2,North,3.5,-,N/A,Fog,Fog,350,2013-06-10 11:52:00
7:44 AM,60.8,59.0,94,29.84,1.0,NW,3.5,-,N/A,,Overcast,320,2013-06-10 12:44:00
7:49 AM,60.8,60.8,100,29.85,1.2,NW,5.8,-,N/A,,Overcast,310,2013-06-10 12:49:00
7:52 AM,61.0,59.0,93,29.84,1.2,NW,6.9,-,N/A,,Overcast,310,2013-06-10 12:52:00
7:58 AM,60.8,59.0,94,29.86,1.0,NW,8.1,-,N/A,,Overcast,320,2013-06-10 12:58:00
8:04 AM,60.8,59.0,94,29.86,1.2,NNW,6.9,-,N/A,,Overcast,330,2013-06-10 13:04:00
8:16 AM,60.8,59.0,94,29.87,2.5,NW,8.1,-,N/A,,Overcast,310,2013-06-10 13:16:00
8:38 AM,60.8,59.0,94,29.88,4.0,NW,9.2,-,N/A,,Overcast,320,2013-06-10 13:38:00
8:52 AM,62.1,59.0,90,29.88,6.0,NW,10.4,-,N/A,,Overcast,310,2013-06-10 13:52:00
9:52 AM,62.1,59.0,90,29.88,6.0,WNW,4.6,-,N/A,,Overcast,290,2013-06-10 14:52:00
10:23 AM,62.6,59.0,88,29.89,10.0,NW,8.1,-,N/A,,Overcast,310,2013-06-10 15:23:00
10:52 AM,63.0,57.9,84,29.88,10.0,WNW,5.8,-,N/A,,Overcast,300,2013-06-10 15:52:00
11:29 AM,64.4,57.2,77,29.89,9.0,NW,5.8,-,N/A,,Overcast,320,2013-06-10 16:29:00
11:40 AM,64.4,57.2,77,29.90,9.0,NNW,5.8,-,N/A,,Overcast,330,2013-06-10 16:40:00
11:52 AM,64.9,57.9,78,29.89,10.0,North,4.6,-,N/A,,Overcast,10,2013-06-10 16:52:00
12:52 PM,66.9,57.9,73,29.87,10.0,Calm,Calm,-,N/A,,Mostly Cloudy,0,2013-06-10 17:52:00
1:52 PM,66.9,60.1,79,29.86,10.0,SE,3.5,-,N/A,,Overcast,140,2013-06-10 18:52:00
2:52 PM,69.1,59.0,70,29.86,10.0,Calm,Calm,-,N/A,,Mostly Cloudy,0,2013-06-10 19:52:00
3:21 PM,69.8,60.8,73,29.87,10.0,South,4.6,-,N/A,,Scattered Clouds,190,2013-06-10 20:21:00
3:52 PM,70.0,59.0,68,29.85,10.0,SE,6.9,-,N/A,,Partly Cloudy,140,2013-06-10 20:52:00
4:52 PM,72.0,61.0,68,29.84,10.0,South,8.1,-,N/A,,Partly Cloudy,180,2013-06-10 21:52:00
5:52 PM,72.0,62.1,71,29.83,10.0,Calm,Calm,-,N/A,,Clear,0,2013-06-10 22:52:00
6:52 PM,73.0,61.0,66,29.83,10.0,SSE,6.9,-,N/A,,Clear,150,2013-06-10 23:52:00
7:52 PM,72.0,61.0,68,29.83,10.0,South,6.9,-,N/A,,Clear,170,2013-06-11 00:52:00
8:52 PM,69.1,61.0,75,29.83,10.0,SSE,4.6,-,N/A,,Clear,160,2013-06-11 01:52:00
9:52 PM,64.9,61.0,87,29.85,10.0,SSE,3.5,-,N/A,,Clear,150,2013-06-11 02:52:00
10:52 PM,62.1,59.0,90,29.86,10.0,SE,5.8,-,N/A,,Clear,140,2013-06-11 03:52:00
11:52 PM,62.1,59.0,90,29.86,9.0,SSE,6.9,-,N/A,,Clear,150,2013-06-11 04:52:00